Regional Weather Roundup
Issued by NWS

Home | Current Version | Previous Version | Text Only | Print | Product List | Glossary Off
Versions: 1 2 3 4 5 6 7 8 9 10 11 12 13 14 15 16 17 18 19 20 21 22 23 24 25 26 27 28 29 30 31 32 33 34 35 36 37 38 39 40 41 42 43 44 45 46 47 48 49 50

055
ASUS43 KMKX 210010
RWRWI

WISCONSIN REGIONAL WEATHER ROUNDUP
NATIONAL WEATHER SERVICE MILWAUKEE/SULLIVAN WI
600 PM CST TUE FEB 20 2018

NOTE: "FAIR" INDICATES FEW OR NO CLOUDS BELOW 12,000 FEET WITH NO
SIGNIFICANT WEATHER AND/OR OBSTRUCTIONS TO VISIBILITY.

WIZ001-002-006>008-014>016-023>028-210100-
NORTHWEST WISCONSIN

CITY           SKY/WX    TMP DP  RH WIND       PRES   REMARKS
SUPERIOR ARPT  FAIR      16   8  68 NW14G20   30.09R WCI   2
6HR MIN TEMP:  13; 6HR MAX TEMP:  19; 6HR PCP:  0.02;

ASHLAND        CLOUDY    17  12  80 W12       30.04R WCI   4
6HR MIN TEMP:  16; 6HR MAX TEMP:  21;

HAYWARD        CLOUDY    17  10  74 W7        30.04R WCI   8
6HR MIN TEMP:  17; 6HR MAX TEMP:  23;

SIREN          FAIR      17   8  65 W10       30.08R WCI   5
6HR MIN TEMP:  15; 6HR MAX TEMP:  19;

CUMBERLAND     FAIR      16   9  73 W10       30.06R WCI   3
RICE LAKE      MOCLDY    18  12  80 W7        30.09R WCI   8
6HR MIN TEMP:  18; 6HR MAX TEMP:  23;

CHETEK         CLOUDY    18  12  79 W7        30.08R WCI   8
6HR MIN TEMP:  18; 6HR MAX TEMP:  23;

LADYSMITH      CLOUDY    20  16  82 W15G21    30.05R WCI   6
6HR MIN TEMP:  20; 6HR MAX TEMP:  25;

EAU CLAIRE     CLOUDY    20  13  74 W14G23    30.08R WCI   7
6HR MIN TEMP:  20; 6HR MAX TEMP:  24;

MENOMONIE      CLOUDY    20  12  72 W9        30.10R WCI   9
6HR MIN TEMP:  20; 6HR MAX TEMP:  25;

NEW RICHMOND   CLOUDY    18   9  66 W9        30.11R WCI   7
6HR MIN TEMP:  18; 6HR MAX TEMP:  20;

OSCEOLA        MOCLDY    18   8  65 W10       30.14R WCI   7
6HR MIN TEMP:  18; 6HR MAX TEMP:  22;

$$

WIZ003>005-009-010-017-018-210100-
NORTH CENTRAL WISCONSIN

CITY           SKY/WX    TMP DP  RH WIND       PRES   REMARKS
MANITOWISH WTR CLOUDY    19  19 100 W6        29.93R WCI  11
6HR MIN TEMP:  19; 6HR MAX TEMP:  23;

ARBOR VITAE    CLOUDY    22  20  93 NW9       29.93R FOG     WCI  12
6HR MIN TEMP:  22; 6HR MAX TEMP:  27;

WOODRUFF       CLOUDY    22  20  93 NW9       29.93R FOG     WCI  12
6HR MIN TEMP:  22; 6HR MAX TEMP:  27;

RHINELANDER    CLOUDY    23  21  92 W12G23    29.92R WCI  12
6HR MIN TEMP:  23; 6HR MAX TEMP:  28;

EAGLE RIVER    CLOUDY    22  20  93 NW8       29.91R WCI  13
6HR MIN TEMP:  22; 6HR MAX TEMP:  27;

LAND O LAKES   CLOUDY    22  20  91 NW5       29.93R WCI  16
6HR MIN TEMP:  22; 6HR MAX TEMP:  27;

PHILLIPS       CLOUDY    20  18  91 W3        29.97R
6HR MIN TEMP:  20; 6HR MAX TEMP:  24;

TOMAHAWK       CLOUDY    22  20  91 W10       29.96R WCI  11
6HR MIN TEMP:  22; 6HR MAX TEMP:  28;

MEDFORD        CLOUDY    21  18  90 W13G20    29.98R WCI   8
6HR MIN TEMP:  21; 6HR MAX TEMP:  25;

MERRILL        CLOUDY    24  21  91 W13       29.97R WCI  12
6HR MIN TEMP:  24; 6HR MAX TEMP:  30;

$$

WIZ029-030-035-036-043>047-210100-
CENTRAL WISCONSIN

CITY           SKY/WX    TMP DP  RH WIND       PRES   REMARKS
WAUSAU         CLOUDY    23  20  88 W14       29.96R WCI  11
6HR MIN TEMP:  23; 6HR MAX TEMP:  31;

MOSINEE        CLOUDY    23  21  93 W9G17     29.99R WCI  13
MARSHFIELD     CLOUDY    22  18  85 NW16G23   29.98R WCI   8
6HR MIN TEMP:  22; 6HR MAX TEMP:  30;

STEVENS POINT  CLOUDY    23  21  93 W7        30.00R WCI  14
6HR MIN TEMP:  23; 6HR MAX TEMP:  31;

WAUPACA        CLOUDY    30  25  80 W13G24    30.00R WCI  20
6HR MIN TEMP:  30; 6HR MAX TEMP:  36;

WAUTOMA        CLOUDY    27  23  85 W18G25    30.02R WCI  14
6HR MIN TEMP:  27; 6HR MAX TEMP:  34;

WISC RAPIDS    CLOUDY    24  20  84 W9        30.02R WCI  14
6HR MIN TEMP:  24; 6HR MAX TEMP:  32;

CAMP DOUGLAS   CLOUDY    25  23  93 W13       30.04R WCI  13
                                      6HR PCP: TRACE;

$$

WIZ011>013-019>022-031-037>040-048>050-210100-
NORTHEAST WISCONSIN

CITY           SKY/WX    TMP DP  RH WIND       PRES   REMARKS
ANTIGO         CLOUDY    24  22  92 W9G18     29.92R WCI  14
6HR MIN TEMP:  24; 6HR MAX TEMP:  31;

SHAWANO        CLOUDY    31  27  83 W15G23    29.95R WCI  21
6HR MIN TEMP:  31; 6HR MAX TEMP:  36;

OCONTO         CLOUDY    33  30  90 W12       29.93R WCI  24
6HR MIN TEMP:  32; 6HR MAX TEMP:  33;

STURGEON BAY   CLOUDY    34  32  92 W10       29.93R WCI  26
6HR MIN TEMP:  33; 6HR MAX TEMP:  34; 6HR PCP: TRACE;

GREEN BAY      CLOUDY    33  28  81 W13       29.96R WCI  24
6HR MIN TEMP:  33; 6HR MAX TEMP:  36; 6HR PCP:  0.01;

MANITOWOC      CLOUDY    35  32  88 W8        29.97R WCI  29
6HR MIN TEMP:  35; 6HR MAX TEMP:  40; 6HR PCP:  0.09;

APPLETON       NOT AVBL
CLINTONVILLE   CLOUDY    29  24  79 W18       29.97R WCI  17
6HR MIN TEMP:  29; 6HR MAX TEMP:  34;

OSHKOSH        CLOUDY    32  28  85 W16G23    29.98R WCI  21
6HR MIN TEMP:  32; 6HR MAX TEMP:  36; 6HR PCP:  0.04;

$$

WIZ032>034-041-042-053>061-210100-
SOUTHWEST WISCONSIN

CITY           SKY/WX    TMP DP  RH WIND       PRES   REMARKS
LA CROSSE      CLOUDY    24  18  77 W15       30.11R WCI  11
6HR MIN TEMP:  24; 6HR MAX TEMP:  29;

SPARTA         CLOUDY    23  21  91 W9        30.09R WCI  13
6HR MIN TEMP:  23; 6HR MAX TEMP:  29;

VIROQUA        CLOUDY    24  23  98 W7        30.05R WCI  15
6HR MIN TEMP:  24; 6HR MAX TEMP:  29;

BOSCOBEL       CLOUDY    28  20  71 W8        30.10R WCI  20
6HR MIN TEMP:  28; 6HR MAX TEMP:  36; 6HR PCP: TRACE;

PRAIRIE DU CHI CLOUDY    26  19  73 W16       30.12R WCI  14
6HR MIN TEMP:  26; 6HR MAX TEMP:  32;

PLATTEVILLE    CLOUDY    28  25  89 W15       30.08R WCI  16
6HR MIN TEMP:  28; 6HR MAX TEMP:  34;

$$

WIZ056-057-062-063-064-067-068-210100-
SOUTH CENTRAL WISCONSIN

CITY           SKY/WX    TMP DP  RH WIND       PRES   REMARKS
REEDSBURG      CLOUDY    27  24  86 W13G21    30.04R WCI  16
6HR MIN TEMP:  27; 6HR MAX TEMP:  35;

BARABOO/DELLS  CLOUDY    28  24  84 W9        30.03R WCI  19
6HR MIN TEMP:  28; 6HR MAX TEMP:  34;

LONE ROCK      CLOUDY    29  24  82 W17       30.07R WCI  17
6HR MIN TEMP:  29; 6HR MAX TEMP:  37; 6HR PCP:  0.01;

MINERAL POINT  CLOUDY    30  28  93 W13G18    30.05R WCI  20
MADISON        CLOUDY    32  27  81 W8        30.04R WCI  25
6HR MIN TEMP:  32; 6HR MAX TEMP:  38; 6HR PCP:  0.11;

MIDDLETON      CLOUDY    32  29  88 W15G21    30.04R WCI  22
6HR MIN TEMP:  32; 6HR MAX TEMP:  38; 6HR PCP:  0.02;

WATERTOWN      CLOUDY    34  34  99 W12       30.00R WCI  25
6HR MIN TEMP:  34; 6HR MAX TEMP:  40; 6HR PCP:  0.31;

MONROE         CLOUDY    32  28  86 W18       30.04R WCI  20
JANESVILLE     MOCLDY    34  34 100 W8        30.03R WCI  27
$$

WIZ051-052-058>065-066-070>072-210100-
SOUTHEAST WISCONSIN

CITY           SKY/WX    TMP DP  RH WIND       PRES   REMARKS
MILWAUKEE      CLOUDY    39  36  89 W13       29.99R WCI  31
6HR MIN TEMP:  39; 6HR MAX TEMP:  53; 6HR PCP:  0.40;

WAUKESHA       CLOUDY    34  34 100 W9        30.01R WCI  26
MILWAUKEE/TIMM CLOUDY    36  32  87 W13       30.01R WCI  27
RACINE         LGT RAIN  38  36  92 W9        30.00R WCI  31
6HR MIN TEMP:  38; 6HR MAX TEMP:  52; 6HR PCP:  0.34;

BURLINGTON     CLOUDY    35  33  92 W6        30.01R WCI  30
6HR MIN TEMP:  35; 6HR MAX TEMP:  49; 6HR PCP:  0.30;

KENOSHA        LGT RAIN  37  34  89 W13       30.00R WCI  29
6HR MIN TEMP:  37; 6HR MAX TEMP:  55; 6HR PCP:  0.26;

FOND DU LAC    CLOUDY    34  29  82 W14       29.99R WCI  25
6HR MIN TEMP:  34; 6HR MAX TEMP:  39; 6HR PCP:  0.07;

SHEBOYGAN      CLOUDY    35  33  92 W10       29.97R WCI  27
6HR MIN TEMP:  35; 6HR MAX TEMP:  42; 6HR PCP:  0.30;

WEST BEND      CLOUDY    34  34 100 W13       29.98R WCI  25
JUNEAU         CLOUDY    32  30  92 W9        30.02R WCI  25
6HR MIN TEMP:  32; 6HR MAX TEMP:  37; 6HR PCP:  0.17;

$$

LSZ147-162-210100-
LAKE SUPERIOR

STATION/POSITION TIME  TEMP    WIND        PRES    WAVE
                       AIR SEA DIR/SP/G            HT/PER
                 (UTC) (F)     (DEG/KT/KT) (MB)    (FT/S)
DEVILS ISLAND    2200   18     260/ 10/ 12 1015.5R
SAXON HARBOR     2240   20     280/  5/  8 1014.9R
$$

LMZ867-665-643>646-210100-
LAKE MICHIGAN

STATION/POSITION TIME  TEMP    WIND        PRES    W



USA.gov is the U.S. government's official web portal to all federal, state and local government web resources and services.